Date String (YYYY-MM-DD hh:mm:ss) UTC,Instrument flags,absolute air pressure of the measurement (hPa),sample flow rate (lpm),inlet stack bypass flow (lpm),air temperature of the measurement (°C),ambient temperature measured by the external sensor (°C),aerosol sample conditioner tube jacket temperature (°C),OPC LED temperature (°C),internal box temperature (°C),relative humidity of the measurement (%),span deviation,mass concentration of particles derived from Lorenz-Mie calculation of OPC scattering (μg/m³),mass concentration of particles derived from Lorenz-Mie calculation of OPC scattering (μg/m³),mass concentration of particles derived from Lorenz-Mie calculation of OPC scattering (μg/m³)
DateTimeUTC,F1_M11,P_M11,Q1_M11,Q2_M11,T1_M11,T2_M11,T3_M11,T4_M11,T5_M11,U1_M11,ZSPAN_M11,X0_M11,X2_M11,X1_M11
2024-01-23 01:00:00,SystemResetWarning,0825.7,5.00,000.00,026.2,025.3,000.0,034.6,027.6,13.6,0000.0,0009.57,0004.78,0004.47
2024-01-23 01:01:00,SystemResetWarning,0825.8,5.01,000.00,026.2,025.3,000.0,034.6,027.6,13.6,0000.0,0009.17,0004.77,0004.48
2024-01-23 01:02:00,SystemResetWarning,0825.8,5.01,000.00,026.2,025.3,000.0,034.6,027.5,13.6,0000.0,0009.21,0004.81,0004.49
2024-01-23 01:03:00,SystemResetWarning,0825.8,5.00,000.00,026.2,025.3,000.0,034.6,027.5,13.6,0000.0,0009.17,0004.80,0004.49
2024-01-23 01:04:00,SystemResetWarning,0825.8,5.00,000.00,026.2,025.3,000.0,034.6,027.5,13.6,0000.0,0009.15,0004.79,0004.49
2024-01-23 01:05:00,SystemResetWarning,0825.8,5.00,000.00,026.2,025.2,000.0,034.6,027.5,13.6,0000.0,0009.26,0004.81,0004.51
2024-01-23 01:06:00,SystemResetWarning,0825.8,5.00,000.00,026.2,025.2,000.0,034.6,027.5,13.6,0000.0,0009.27,0004.83,0004.51
2024-01-23 01:07:00,SystemResetWarning,0825.8,5.00,000.00,026.2,025.2,000.0,034.6,027.5,13.7,0000.0,0009.09,0004.81,0004.52
2024-01-23 01:08:00,SystemResetWarning,0825.8,4.99,000.00,026.2,025.2,000.0,034.6,027.5,13.7,0000.0,0008.77,0004.81,0004.53
2024-01-23 01:09:00,SystemResetWarning,0825.8,5.00,000.00,026.2,025.2,000.0,034.6,027.5,13.7,0000.0,0008.77,0004.80,0004.54
2024-01-23 01:10:00,SystemResetWarning,0825.8,5.00,000.00,026.2,025.2,000.0,034.6,027.6,13.7,0000.0,0007.83,0004.82,0004.54
2024-01-23 01:11:00,SystemResetWarning,0825.8,5.01,000.00,026.2,025.2,000.0,034.6,027.5,13.7,0000.0,0007.61,0004.83,0004.55
2024-01-23 01:12:00,SystemResetWarning,0825.9,5.00,000.00,026.2,025.2,000.0,034.6,027.5,13.7,0000.0,0007.63,0004.84,0004.56
2024-01-23 01:13:00,SystemResetWarning,0825.9,5.00,000.00,026.2,025.2,000.0,034.6,027.5,13.7,0000.0,0007.56,0004.82,0004.56
2024-01-23 01:14:00,SystemResetWarning,0825.9,5.00,000.00,026.2,025.2,000.0,034.6,027.5,13.7,0000.0,0007.59,0004.83,0004.57
2024-01-23 01:15:00,SystemResetWarning,0825.9,4.99,000.00,026.2,025.2,000.0,034.5,027.5,13.6,0000.0,0007.58,0004.84,0004.58
2024-01-23 01:16:00,SystemResetWarning,0825.9,4.99,000.00,026.2,025.2,000.0,034.5,027.5,13.6,0000.0,0007.50,0004.84,0004.57
2024-01-23 01:17:00,SystemResetWarning,0825.9,5.01,000.00,026.2,025.1,000.0,034.5,027.5,13.6,0000.0,0007.48,0004.82,0004.56
2024-01-23 01:18:00,SystemResetWarning,0825.9,5.01,000.00,026.2,025.1,000.0,034.5,027.5,13.6,0000.0,0007.62,0004.82,0004.56
2024-01-23 01:19:00,SystemResetWarning,0826.0,5.01,000.00,026.2,025.1,000.0,034.5,027.4,13.7,0000.0,0007.66,0004.82,0004.55
2024-01-23 01:20:00,SystemResetWarning,0825.9,5.00,000.00,026.1,025.1,000.0,034.5,027.5,13.7,0000.0,0007.68,0004.83,0004.56
2024-01-23 01:21:00,SystemResetWarning,0825.9,4.99,000.00,026.1,025.1,000.0,034.5,027.5,13.7,0000.0,0007.69,0004.85,0004.57
2024-01-23 01:22:00,SystemResetWarning,0825.9,4.99,000.00,026.1,025.0,000.0,034.5,027.4,13.7,0000.0,0007.70,0004.87,0004.57
2024-01-23 01:23:00,SystemResetWarning,0825.9,5.00,000.00,026.1,025.0,000.0,034.5,027.4,13.6,0000.0,0007.76,0004.90,0004.58
2024-01-23 01:24:00,SystemResetWarning,0825.9,5.00,000.00,026.1,025.0,000.0,034.5,027.4,13.6,0000.0,0007.80,0004.92,0004.59
2024-01-23 01:25:00,SystemResetWarning,0825.9,5.00,000.00,026.1,025.0,000.0,034.5,027.4,13.6,0000.0,0008.18,0004.92,0004.59
2024-01-23 01:26:00,SystemResetWarning,0825.9,5.00,000.00,026.1,025.0,000.0,034.5,027.4,13.6,0000.0,0008.39,0004.93,0004.60
2024-01-23 01:27:00,SystemResetWarning,0825.9,5.00,000.00,026.1,025.0,000.0,034.5,027.4,13.6,0000.0,0008.45,0004.95,0004.60
2024-01-23 01:28:00,SystemResetWarning,0825.9,5.00,000.00,026.1,025.0,000.0,034.5,027.4,13.6,0000.0,0008.90,0004.97,0004.63
2024-01-23 01:29:00,SystemResetWarning,0825.9,5.00,000.00,026.1,024.9,000.0,034.5,027.4,13.5,0000.0,0009.21,0005.01,0004.64
2024-01-23 01:30:00,SystemResetWarning,0825.9,5.00,000.00,026.1,024.9,000.0,034.5,027.4,13.4,0000.0,0009.36,0005.03,0004.65
2024-01-23 01:31:00,SystemResetWarning,0826.0,5.00,000.00,026.1,024.9,000.0,034.5,027.4,13.4,0000.0,0009.58,0005.05,0004.66
2024-01-23 01:32:00,SystemResetWarning,0825.9,5.00,000.00,026.0,024.9,000.0,034.4,027.4,13.4,0000.0,0009.61,0005.03,0004.66
2024-01-23 01:33:00,SystemResetWarning,0825.9,4.99,000.00,026.0,024.9,000.0,034.4,027.3,13.4,0000.0,0009.72,0005.04,0004.66
2024-01-23 01:34:00,SystemResetWarning,0825.9,4.99,000.00,026.0,024.9,000.0,034.4,027.3,13.5,0000.0,0009.77,0005.04,0004.67
2024-01-23 01:35:00,SystemResetWarning,0825.9,5.00,000.00,026.0,024.9,000.0,034.4,027.3,13.5,0000.0,0009.81,0005.06,0004.67
2024-01-23 01:36:00,SystemResetWarning,0825.9,5.00,000.00,026.0,024.8,000.0,034.4,027.3,13.6,0000.0,0009.87,0005.07,0004.68
2024-01-23 01:37:00,SystemResetWarning,0825.9,5.00,000.00,026.0,024.8,000.0,034.4,027.3,13.6,0000.0,0009.78,0005.11,0004.69
2024-01-23 01:38:00,SystemResetWarning,0825.9,5.00,000.00,026.0,024.8,000.0,034.4,027.3,13.5,0000.0,0009.87,0005.12,0004.69
2024-01-23 01:39:00,SystemResetWarning,0825.9,5.00,000.00,026.0,024.8,000.0,034.4,027.3,13.5,0000.0,0009.77,0005.12,0004.67
2024-01-23 01:40:00,SystemResetWarning,0825.9,5.00,000.00,026.0,024.7,000.0,034.4,027.3,13.5,0000.0,0009.62,0005.11,0004.67
2024-01-23 01:41:00,SystemResetWarning,0825.9,5.00,000.00,026.0,024.7,000.0,034.4,027.3,13.6,0000.0,0009.77,0005.13,0004.68
2024-01-23 01:42:00,SystemResetWarning,0825.9,5.01,000.00,026.0,024.7,000.0,034.4,027.3,13.6,0000.0,0010.18,0005.11,0004.67
2024-01-23 01:43:00,SystemResetWarning,0825.9,5.00,000.00,025.9,024.7,000.0,034.4,027.2,13.6,0000.0,0011.40,0005.15,0004.67
2024-01-23 01:44:00,SystemResetWarning,0825.9,5.00,000.00,025.9,024.7,000.0,034.3,027.2,13.6,0000.0,0011.83,0005.14,0004.66
2024-01-23 01:45:00,SystemResetWarning,0825.9,5.00,000.00,025.9,024.7,000.0,034.3,027.2,13.6,0000.0,0012.28,0005.15,0004.65
2024-01-23 01:46:00,SystemResetWarning,0825.9,4.99,000.00,025.9,024.7,000.0,034.3,027.2,13.6,0000.0,0012.81,0005.13,0004.63
2024-01-23 01:47:00,SystemResetWarning,0825.9,4.99,000.00,025.9,024.7,000.0,034.3,027.2,13.6,0000.0,0012.56,0005.13,0004.61
2024-01-23 01:48:00,SystemResetWarning,0825.9,5.00,000.00,025.9,024.6,000.0,034.3,027.2,13.6,0003.8,0012.46,0005.12,0004.61
2024-01-23 01:49:00,SystemResetWarning,0825.9,5.01,000.00,025.9,024.6,000.0,034.3,027.2,13.6,0004.4,0012.35,0005.09,0004.61
2024-01-23 01:50:00,SystemResetWarning,0825.9,5.01,000.00,025.9,024.6,000.0,034.3,027.2,13.6,0004.3,0012.16,0005.08,0004.61
2024-01-23 01:51:00,SystemResetWarning,0825.9,5.00,000.00,025.9,024.6,000.0,034.3,027.2,13.6,0004.2,0011.97,0005.10,0004.60
2024-01-23 01:52:00,SystemResetWarning,0825.9,4.99,000.00,025.9,024.6,000.0,034.3,027.2,13.6,0003.7,0012.67,0005.06,0004.57
2024-01-23 01:53:00,SystemResetWarning,0825.9,5.00,000.00,025.8,024.6,000.0,034.3,027.2,13.6,0003.1,0012.17,0005.01,0004.53
2024-01-23 01:54:00,SystemResetWarning,0825.9,5.01,000.00,025.8,024.6,000.0,034.2,027.1,13.6,0003.1,0011.36,0004.97,0004.50
2024-01-23 01:55:00,SystemResetWarning,0825.9,5.01,000.00,025.8,024.6,000.0,034.2,027.2,13.6,0003.1,0010.40,0004.94,0004.47
2024-01-23 01:56:00,SystemResetWarning,0825.9,5.01,000.00,025.8,024.6,000.0,034.2,027.1,13.6,0003.3,0010.95,0004.91,0004.45
2024-01-23 01:57:00,SystemResetWarning,0825.9,4.99,000.00,025.8,024.6,000.0,034.2,027.1,13.6,0003.0,0010.42,0004.86,0004.44
2024-01-23 01:58:00,SystemResetWarning,0825.9,4.99,000.00,025.8,024.6,000.0,034.2,027.1,13.6,0002.8,0010.29,0004.85,0004.43
2024-01-23 01:59:00,SystemResetWarning,0825.9,5.00,000.00,025.8,024.6,000.0,034.2,027.1,13.6,0002.6,0010.20,0004.82,0004.40
